Menu       Home   X °F

Select another period ( hide this area )

Units Period Custom range Directly to
Metric English Both
Daily Weekly Monthly Yearly
use both date-selectors for a custom range
previous Day
With this date
Daily Summary for Sunday 03 March 2024
Time Temp. ( °C ) Dew pt. ( °C ) Wind ( km/h ) From Gust ( km/h ) Pressure ( hPa ) Humid.( % ) Rainrate ( cm )
High17,5 12,4 20,0 NW ( 942/2371 ) 28,0 1020,4 94 1,80
Average13,2 9,6 8,8 WNW #94/269 11,4 1017,9 79 3,60
Low10,2 6,9 2,0   4,0 1014,5 62 -
Daily Tabular details for Sunday 03 March 2024
Time Temp. ( °C ) Dew pt. ( °C ) Wind ( km/h ) From Gust ( km/h ) Pressure ( hPa ) Humid.( % ) Rainrate ( cm )
00:04 10,7 7,9 10,0 NNW 13,0 1014,6 83 -
00:09 10,7 7,7 15,0 NNW 18,0 1014,5 82 -
00:14 10,8 7,1 9,0 NW 11,0 1014,7 78 -
00:19 10,9 7,0 9,0 NW 15,0 1014,5 77 -
00:24 10,9 7,0 12,0 NW 15,0 1014,7 77 -
00:29 10,9 7,0 12,0 NW 17,0 1014,6 77 -
00:34 10,9 7,0 8,0 NW 15,0 1014,6 77 -
00:39 10,9 7,0 13,0 NW 17,0 1014,6 77 -
00:44 10,9 7,0 12,0 NW 17,0 1014,7 77 -
00:49 11,0 7,1 11,0 NW 17,0 1014,6 77 -
00:54 10,9 7,0 11,0 NNW 15,0 1014,7 77 -
00:59 11,0 7,1 10,0 NW 15,0 1014,7 77 -
01:04 11,0 7,1 13,0 NW 17,0 1014,8 77 -
01:09 11,0 7,1 10,0 NW 15,0 1015,0 77 -
01:14 11,1 7,2 11,0 NW 13,0 1014,9 77 -
01:19 11,1 7,2 8,0 WNW 9,0 1015,0 77 -
01:24 11,1 7,3 9,0 WNW 9,0 1014,9 78 -
01:29 11,0 7,3 10,0 WNW 11,0 1015,0 78 -
01:34 11,0 7,3 9,0 NW 13,0 1015,0 78 -
01:39 11,2 7,2 19,0 NW 26,0 1015,2 77 -
01:44 11,2 7,3 14,0 WNW 17,0 1015,0 77 -
01:49 11,1 7,3 11,0 NNW 17,0 1015,0 78 -
01:54 10,9 7,4 11,0 NW 13,0 1015,0 79 -
01:59 10,8 7,3 9,0 NW 9,0 1015,0 79 -
02:04 10,7 7,2 9,0 NW 13,0 1015,0 79 -
02:09 10,8 7,2 9,0 NW 11,0 1015,0 79 -
02:14 10,8 6,9 11,0 NW 15,0 1015,0 77 -
02:19 10,9 7,0 10,0 NW 11,0 1014,9 77 -
02:24 10,9 7,0 10,0 WNW 11,0 1015,0 77 -
02:29 10,9 7,0 8,0 WNW 9,0 1015,0 77 -
02:34 11,0 7,3 7,0 WNW 9,0 1015,2 78 -
02:39 11,0 7,3 7,0 WNW 9,0 1015,0 78 -
02:44 10,9 7,4 9,0 WNW 11,0 1014,9 79 -
02:49 10,9 7,6 8,0 WNW 11,0 1015,0 80 -
02:54 10,9 7,6 11,0 NW 13,0 1015,0 80 -
02:59 10,9 7,7 12,0 NW 15,0 1015,0 81 -
03:04 10,8 7,7 12,0 NW 17,0 1015,1 81 -
03:09 10,7 7,8 12,0 NW 17,0 1014,9 82 -
03:14 10,7 7,5 11,0 NW 17,0 1014,9 81 -
03:19 10,7 7,4 13,0 NW 15,0 1014,9 80 -
03:24 10,8 7,3 10,0 WNW 15,0 1015,0 79 -
03:29 10,7 7,2 11,0 NW 13,0 1014,9 79 -
03:34 10,7 7,4 9,0 NW 11,0 1015,0 80 -
03:39 10,7 7,4 7,0 WNW 11,0 1015,0 80 -
03:44 10,6 7,5 6,0 NW 7,0 1015,0 81 -
03:49 10,6 7,6 6,0 WNW 7,0 1015,1 82 -
03:54 10,6 7,7 6,0 WNW 9,0 1015,1 82 -
03:59 10,6 7,7 6,0 WNW 7,0 1015,0 82 -
04:04 10,6 7,7 6,0 WNW 9,0 1015,1 82 -
04:09 10,6 7,7 4,0 WNW 4,0 1015,2 82 -
04:14 10,5 7,7 6,0 WNW 7,0 1015,1 83 -
04:19 10,5 7,6 6,0 WNW 7,0 1015,2 82 -
04:24 10,5 7,6 6,0 WNW 7,0 1015,3 83 -
04:29 10,4 7,6 3,0 WNW 4,0 1015,3 83 -
04:34 10,3 7,5 3,0 NW 4,0 1015,5 83 -
04:39 10,3 7,5 4,0 WNW 6,0 1015,4 83 -
04:44 10,3 7,5 6,0 WNW 7,0 1015,4 83 -
04:49 10,4 7,3 9,0 WNW 13,0 1015,4 82 -
04:54 10,6 7,3 9,0 WNW 13,0 1015,6 81 -
04:59 10,6 7,1 8,0 WNW 11,0 1015,6 79 -
05:04 10,9 7,0 10,0 WNW 13,0 1015,7 78 -
05:09 10,9 7,0 11,0 NNW 15,0 1015,7 77 -
05:14 10,9 7,2 12,0 NW 17,0 1015,8 78 -
05:19 10,8 7,1 12,0 NW 15,0 1015,8 78 -
05:24 10,6 7,1 11,0 WNW 15,0 1016,0 79 -
05:29 10,7 7,0 9,0 NW 13,0 1016,0 78 -
05:34 10,7 7,0 8,0 WNW 9,0 1015,9 78 -
05:39 10,7 7,2 8,0 NW 11,0 1016,0 79 -
05:44 10,7 7,2 8,0 WNW 11,0 1016,0 79 -
05:49 10,8 7,2 9,0 WNW 11,0 1016,1 79 -
05:54 10,8 7,5 7,0 NNW 9,0 1016,2 80 -
05:59 10,8 7,8 14,0 NNW 17,0 1016,2 82 -
06:04 10,6 7,9 9,0 NW 13,0 1016,3 84 -
06:09 10,5 7,9 11,0 NW 13,0 1016,5 84 -
06:14 10,4 7,8 12,0 NW 15,0 1016,4 84 -
06:19 10,5 7,7 10,0 NW 13,0 1016,5 83 -
06:24 10,7 7,8 13,0 WNW 20,0 1016,5 82 -
06:29 10,8 7,9 14,0 NW 17,0 1016,4 82 -
06:34 10,7 7,9 9,0 WNW 11,0 1016,6 83 -
06:39 10,6 7,8 8,0 WNW 11,0 1016,5 83 -
06:44 10,5 7,9 6,0 WNW 7,0 1016,5 84 -
06:49 10,4 7,8 6,0 West 7,0 1016,7 84 -
06:54 10,4 7,8 10,0 WNW 13,0 1016,8 84 -
06:59 10,4 7,8 6,0 WNW 7,0 1016,7 84 -
07:04 10,4 7,8 9,0 WNW 9,0 1016,8 84 -
07:09 10,4 7,8 3,0 West 4,0 1016,8 84 -
07:14 10,5 8,1 7,0 NW 9,0 1017,0 85 -
07:19 10,5 8,4 12,0 NW 15,0 1017,0 87 1,80
07:24 10,5 8,4 12,0 WNW 15,0 1017,0 88 1,80
07:29 10,3 8,3 3,0 WNW 4,0 1017,1 88 1,80
07:34 10,2 8,2 6,0 WNW 7,0 1017,0 88 -
07:39 10,2 8,2 9,0 WNW 11,0 1017,2 88 -
07:44 10,2 8,2 7,0 WNW 7,0 1017,3 88 -
07:49 10,3 8,2 9,0 WNW 11,0 1017,3 87 -
07:54 10,4 8,2 6,0 West 7,0 1017,3 86 -
07:59 10,6 8,2 6,0 WNW 7,0 1017,4 86 -
08:04 10,8 8,3 6,0 WNW 7,0 1017,7 85 -
08:09 11,1 8,4 4,0 WNW 6,0 1017,7 84 -
08:14 11,2 8,4 6,0 WNW 7,0 1017,6 83 -
08:19 11,4 8,6 4,0 NW 6,0 1017,7 83 -
08:24 11,5 8,7 5,0 NW 6,0 1017,9 83 -
08:29 11,7 8,6 4,0 WNW 6,0 1017,8 82 -
08:34 11,7 8,5 6,0 WNW 6,0 1017,8 81 -
08:39 11,9 8,6 6,0 WNW 7,0 1017,8 80 -
08:44 11,9 8,6 6,0 WNW 7,0 1017,8 80 -
08:49 12,0 8,5 6,0 WNW 7,0 1017,9 79 -
08:54 12,5 8,9 3,0 WNW 4,0 1018,1 79 -
08:59 12,6 8,9 7,0 WNW 7,0 1018,0 78 -
09:04 12,3 8,8 4,0 WNW 4,0 1018,1 79 -
09:09 12,4 8,7 6,0 WNW 11,0 1018,2 78 -
09:14 12,9 9,0 5,0 NW 6,0 1018,2 78 -
09:19 13,4 9,2 3,0 WSW 6,0 1018,2 77 -
09:24 13,9 9,5 3,0 NNE 4,0 1018,3 76 -
09:29 14,0 9,5 4,0 West 6,0 1018,2 75 -
09:34 14,2 9,4 4,0 WNW 6,0 1018,2 73 -
09:39 14,1 9,6 3,0 WNW 4,0 1018,3 74 -
09:44 14,4 9,6 4,0 West 6,0 1018,5 74 -
09:49 14,5 9,7 6,0 WNW 9,0 1018,3 73 -
09:54 14,4 9,4 7,0 NW 9,0 1018,4 72 -
09:59 14,5 9,3 12,0 WNW 15,0 1018,4 71 -
10:04 14,2 9,0 11,0 WNW 13,0 1018,4 71 -
10:09 14,4 9,0 7,0 NW 11,0 1018,4 71 -
10:14 14,4 9,0 9,0 NW 9,0 1018,6 70 -
10:19 14,5 8,9 12,0 WNW 15,0 1018,5 69 -
10:24 14,5 8,9 11,0 WNW 13,0 1018,3 69 -
10:29 14,8 8,9 13,0 NW 18,0 1018,4 68 -
10:34 14,9 8,8 11,0 NW 13,0 1018,6 67 -
10:39 15,2 9,1 12,0 NW 15,0 1018,6 67 -
10:44 15,1 8,8 15,0 NW 18,0 1018,6 66 -
10:49 15,4 9,1 9,0 NW 13,0 1018,6 66 -
10:54 15,4 8,9 13,0 WNW 17,0 1018,5 65 -
10:59 15,4 9,1 14,0 NW 18,0 1018,6 66 -
11:04 15,3 8,8 15,0 NW 18,0 1018,7 65 -
11:09 15,2 8,3 13,0 NW 18,0 1018,6 64 -
11:14 15,5 8,5 12,0 NW 15,0 1018,7 63 -
11:19 15,7 8,6 9,0 NNW 17,0 1018,8 63 -
11:24 15,7 8,4 17,0 NNW 24,0 1018,9 62 -
11:29 15,4 8,6 12,0 NNW 17,0 1018,7 64 -
11:34 15,5 8,7 11,0 NW 15,0 1018,8 64 -
11:39 15,6 8,9 15,0 NW 18,0 1018,9 65 -
11:44 15,7 8,7 15,0 NW 18,0 1018,9 64 -
11:49 15,5 9,0 13,0 NW 18,0 1019,0 65 -
11:54 15,5 9,2 13,0 NW 18,0 1019,1 66 -
11:59 15,3 9,0 15,0 WNW 18,0 1019,1 66 -
12:04 15,3 9,2 11,0 NW 15,0 1019,1 67 -
12:09 15,6 9,5 9,0 WNW 11,0 1019,0 67 -
12:14 16,1 9,8 14,0 WNW 17,0 1019,1 67 -
12:19 16,1 9,8 15,0 NW 18,0 1019,0 67 -
12:24 16,0 9,7 13,0 NW 17,0 1019,1 67 -
12:29 16,0 10,0 12,0 NW 17,0 1019,2 68 -
12:34 15,6 9,8 20,0 NW 24,0 1019,1 69 -
12:39 15,4 9,8 20,0 NW 28,0 1019,2 69 -
12:44 15,9 10,0 10,0 NNW 15,0 1019,1 68 -
12:49 15,9 10,0 14,0 NW 18,0 1019,2 69 -
12:54 15,7 10,0 11,0 NW 15,0 1019,1 69 -
12:59 15,8 10,2 15,0 NW 18,0 1019,1 70 -
13:04 15,8 10,3 16,0 NW 20,0 1019,1 70 -
13:09 15,5 10,3 15,0 NW 20,0 1019,1 71 -
13:14 15,5 10,2 17,0 NW 20,0 1019,0 71 -
13:19 15,3 10,1 13,0 NW 17,0 1019,0 71 -
13:24 15,3 10,2 15,0 WNW 20,0 1019,0 72 -
13:29 15,2 10,4 14,0 WNW 18,0 1019,2 73 -
13:34 15,4 10,6 10,0 West 11,0 1018,9 73 -
13:39 15,3 10,6 14,0 NW 18,0 1019,0 74 -
13:44 15,6 10,8 11,0 WNW 13,0 1019,0 73 -
13:49 15,5 10,8 12,0 West 15,0 1019,0 74 -
13:54 16,2 11,3 11,0 WNW 15,0 1019,0 74 -
13:59 16,1 11,2 9,0 NW 13,0 1018,9 73 -
14:04 16,2 11,4 12,0 WNW 15,0 1018,9 73 -
14:09 16,7 11,5 8,0 WNW 11,0 1018,9 73 -
14:14 16,8 11,4 11,0 WNW 15,0 1018,9 71 -
14:19 16,7 11,2 11,0 NW 15,0 1018,7 71 -
14:24 16,2 10,9 15,0 NW 20,0 1018,8 71 -
14:29 16,4 11,0 11,0 NW 15,0 1018,8 71 -
14:34 16,4 11,2 14,0 WNW 17,0 1018,8 72 -
14:39 16,5 11,0 13,0 WNW 17,0 1018,6 71 -
14:44 17,0 11,3 12,0 NW 13,0 1018,7 71 -
14:49 17,0 11,3 14,0 NW 22,0 1018,7 70 -
14:54 17,1 11,1 13,0 WNW 18,0 1018,7 70 -
14:59 17,5 11,5 13,0 NW 17,0 1018,7 68 -
15:04 17,0 11,7 12,0 WNW 15,0 1018,7 72 -
15:09 16,9 12,0 10,0 West 13,0 1018,8 73 -
15:14 16,9 12,3 9,0 West 13,0 1018,7 76 -
15:19 16,5 12,2 10,0 WNW 15,0 1018,8 77 -
15:24 16,7 12,3 14,0 West 18,0 1018,8 76 -
15:29 16,2 12,0 5,0 West 7,0 1018,7 76 -
15:34 16,2 12,0 9,0 West 11,0 1018,7 76 -
15:39 16,3 12,0 11,0 WNW 15,0 1018,8 76 -
15:44 16,3 11,9 8,0 WNW 11,0 1018,8 75 -
15:49 16,3 12,1 9,0 WNW 11,0 1018,8 76 -
15:54 16,2 12,2 6,0 West 7,0 1018,8 77 -
15:59 16,1 12,0 8,0 WNW 9,0 1018,9 77 -
16:04 16,0 11,8 11,0 NNW 13,0 1018,9 76 -
16:09 16,0 12,2 11,0 WNW 15,0 1019,0 78 -
16:14 15,9 12,4 8,0 West 13,0 1019,0 80 -
16:19 15,7 12,3 11,0 West 13,0 1019,0 81 -
16:24 15,4 12,2 10,0 WNW 11,0 1019,0 82 -
16:29 15,2 12,1 9,0 West 11,0 1019,0 82 -
16:34 15,2 12,0 8,0 West 11,0 1019,0 81 -
16:39 15,1 11,9 10,0 West 13,0 1019,2 81 -
16:44 15,1 11,9 7,0 WSW 9,0 1019,0 81 -
16:49 15,2 12,1 8,0 West 9,0 1019,2 82 -
16:54 15,2 12,1 9,0 West 11,0 1019,2 82 -
16:59 15,2 12,1 9,0 WSW 11,0 1019,1 82 -
17:04 15,1 12,0 10,0 West 13,0 1019,2 82 -
17:09 15,1 11,9 12,0 WSW 17,0 1019,1 81 -
17:14 15,1 11,9 6,0 WSW 11,0 1019,1 81 -
17:19 15,4 11,9 7,0 WSW 9,0 1019,1 80 -
17:24 15,4 11,8 7,0 WSW 9,0 1019,2 79 -
17:29 15,4 11,8 6,0 West 7,0 1019,2 79 -
17:34 15,3 11,7 6,0 WSW 7,0 1019,2 79 -
17:39 15,3 11,6 9,0 WNW 11,0 1019,3 79 -
17:44 15,6 11,6 7,0 West 9,0 1019,4 78 -
17:49 15,6 11,6 9,0 West 13,0 1019,3 77 -
17:54 15,8 11,6 4,0 West 9,0 1019,3 76 -
17:59 15,8 11,8 6,0 WSW 7,0 1019,4 77 -
18:04 15,7 11,7 9,0 West 11,0 1019,3 79 -
18:09 15,1 11,5 8,0 WSW 11,0 1019,3 80 -
18:14 14,8 11,4 4,0 West 6,0 1019,4 80 -
18:19 14,7 11,4 6,0 WNW 7,0 1019,5 81 -
18:24 14,5 11,3 7,0 WNW 9,0 1019,4 81 -
18:29 14,5 11,3 4,0 West 7,0 1019,4 81 -
18:34 14,4 11,4 6,0 West 7,0 1019,5 82 -
18:39 14,4 11,4 7,0 WSW 9,0 1019,5 82 -
18:44 14,4 11,6 7,0 West 9,0 1019,5 84 -
18:49 14,3 11,6 6,0 WSW 6,0 1019,7 84 -
18:54 14,2 11,7 6,0 West 9,0 1019,6 85 -
18:59 14,2 11,7 7,0 WSW 9,0 1019,6 85 -
19:04 14,1 11,8 6,0 WNW 7,0 1019,8 86 -
19:09 14,0 11,7 7,0 West 9,0 1019,7 86 -
19:14 13,9 11,7 6,0 WSW 9,0 1019,7 87 -
19:19 13,8 11,7 6,0 WNW 7,0 1019,8 87 -
19:24 13,7 11,6 7,0 WNW 9,0 1019,8 87 -
19:29 13,7 11,7 5,0 WNW 7,0 1019,9 88 -
19:34 13,7 11,7 4,0 WNW 4,0 1019,9 88 -
19:39 13,6 11,6 3,0 West 4,0 1020,1 88 -
19:44 13,6 11,6 6,0 West 6,0 1020,1 88 -
19:49 13,7 11,7 4,0 WSW 6,0 1020,1 88 -
19:54 13,7 11,7 4,0 WSW 4,0 1020,1 88 -
19:59 13,7 11,9 6,0 West 7,0 1020,2 89 -
20:04 13,7 11,9 4,0 SW 6,0 1020,2 89 -
20:09 13,7 11,9 4,0 SW 7,0 1020,3 89 -
20:14 13,6 11,8 2,0 WSW 4,0 1020,2 89 -
20:19 13,6 11,8 4,0 SW 6,0 1020,0 89 -
20:24 13,7 12,0 3,0 South 6,0 1020,0 90 -
20:29 13,5 11,9 4,0 SSW 4,0 1020,2 90 -
20:34 13,3 11,9 4,0 SW 4,0 1020,1 91 -
20:39 13,3 11,9 4,0 South 6,0 1020,1 91 -
20:44 13,2 11,8 4,0 South 6,0 1020,1 91 -
20:49 13,1 11,9 6,0 SSW 7,0 1020,1 92 -
20:54 13,1 11,9 6,0 SSW 7,0 1020,1 92 -
20:59 13,1 11,9 5,0 South 7,0 1020,1 92 -
21:04 13,1 11,9 4,0 South 6,0 1020,2 92 -
21:09 13,1 11,9 5,0 SSW 6,0 1020,2 92 -
21:14 13,1 12,0 6,0 SW 7,0 1020,3 93 -
21:19 13,1 12,0 6,0 SSW 7,0 1020,2 93 -
21:24 13,1 12,0 7,0 SSW 9,0 1020,3 93 -
21:29 13,0 11,9 8,0 SSW 11,0 1020,3 93 -
21:34 13,0 11,9 6,0 SSW 9,0 1020,2 93 -
21:39 13,0 11,9 9,0 SSW 9,0 1020,2 93 -
21:44 12,9 11,8 9,0 SSW 11,0 1020,3 93 -
21:49 12,9 11,9 5,0 SW 6,0 1020,3 94 -
21:54 12,9 11,9 6,0 SSW 7,0 1020,3 94 -
21:59 12,8 11,8 6,0 SSW 7,0 1020,4 94 -
22:04 12,8 11,8 6,0 SSW 7,0 1020,4 94 -
22:09 12,8 11,8 4,0 SSW 4,0 1020,4 94 -
22:14 12,8 11,8 5,0 SSW 7,0 1020,1 94 -
22:19 12,7 11,7 6,0 SSW 7,0 1020,3 94 -
22:24 12,7 11,7 4,0 SSW 6,0 1020,3 94 -

Our weather-data as stored at Weather Underground. Original script b Jim McMurry. Rewritten for template use Leuven-Template